Time,TemperatureF,DewpointF,PressureIn,WindDirection,WindDirectionDegrees,WindSpeedMPH,WindSpeedGustMPH,Humidity,HourlyPrecipIn,Conditions,Clouds,dailyrainin,SolarRadiationWatts/m^2,SoftwareType,DateUTC
2013-06-23 00:02:00,51.0,48.0,29.77,SSW,198,0.0,1.0,88,0.00,,,0.00,0.000000,,2013-06-23 08:02:00,
2013-06-23 00:11:00,51.0,48.0,29.77,SSW,198,0.0,1.0,88,0.00,,,0.00,0.000000,,2013-06-23 08:11:00,
2013-06-23 00:33:00,51.0,48.0,29.78,SSW,198,0.0,0.0,89,0.00,,,0.00,0.000000,,2013-06-23 08:33:00,
2013-06-23 00:42:00,50.0,47.0,29.78,North,0,0.0,3.0,90,0.00,,,0.00,0.000000,,2013-06-23 08:42:00,
2013-06-23 00:53:00,50.0,47.0,29.78,North,0,0.0,0.0,89,0.00,,,0.00,0.000000,,2013-06-23 08:53:00,
2013-06-23 01:02:00,50.0,47.0,29.78,North,0,0.0,1.0,90,0.00,,,0.00,0.000000,,2013-06-23 09:02:00,
2013-06-23 01:12:00,50.0,47.0,29.78,North,0,0.0,0.0,91,0.00,,,0.00,0.000000,,2013-06-23 09:12:00,
2013-06-23 01:22:00,50.0,47.0,29.77,North,0,0.0,0.0,91,0.00,,,0.00,0.000000,,2013-06-23 09:22:00,
2013-06-23 01:34:00,50.0,48.0,29.77,North,0,0.0,0.0,92,0.00,,,0.00,0.000000,,2013-06-23 09:34:00,
2013-06-23 01:43:00,50.0,48.0,29.77,North,0,0.0,0.0,92,0.00,,,0.00,0.000000,,2013-06-23 09:43:00,
2013-06-23 01:53:00,50.0,48.0,29.76,North,0,0.0,0.0,92,0.00,,,0.00,0.000000,,2013-06-23 09:53:00,
2013-06-23 02:02:00,50.0,48.0,29.76,North,0,0.0,0.0,93,0.00,,,0.00,0.000000,,2013-06-23 10:02:00,
2013-06-23 02:11:00,50.0,48.0,29.76,North,0,0.0,0.0,93,0.00,,,0.00,0.000000,,2013-06-23 10:11:00,
2013-06-23 02:34:00,50.0,48.0,29.76,North,0,0.0,0.0,94,0.00,,,0.00,0.000000,,2013-06-23 10:34:00,
2013-06-23 02:43:00,50.0,48.0,29.75,North,0,0.0,1.0,94,0.00,,,0.00,0.000000,,2013-06-23 10:43:00,
2013-06-23 02:52:00,50.0,48.0,29.76,North,0,0.0,0.0,94,0.01,,,0.01,0.000000,,2013-06-23 10:52:00,
2013-06-23 03:01:00,50.0,48.0,29.75,North,0,0.0,2.0,94,0.01,,,0.01,0.000000,,2013-06-23 11:01:00,
2013-06-23 03:11:00,50.0,48.0,29.75,North,0,0.0,1.0,94,0.01,,,0.01,0.000000,,2013-06-23 11:11:00,
2013-06-23 03:22:00,50.0,49.0,29.75,North,0,0.0,1.0,95,0.01,,,0.01,0.000000,,2013-06-23 11:22:00,
2013-06-23 03:33:00,50.0,49.0,29.75,North,0,0.0,1.0,95,0.01,,,0.01,0.000000,,2013-06-23 11:33:00,
2013-06-23 03:43:00,50.0,49.0,29.75,North,0,0.0,0.0,95,0.01,,,0.01,0.000000,,2013-06-23 11:43:00,
2013-06-23 03:53:00,50.0,49.0,29.74,North,0,0.0,2.0,95,0.00,,,0.01,0.000000,,2013-06-23 11:53:00,
2013-06-23 04:01:00,50.0,49.0,29.74,North,0,0.0,1.0,95,0.00,,,0.01,0.000000,,2013-06-23 12:01:00,
2013-06-23 04:11:00,50.0,49.0,29.74,North,0,0.0,0.0,95,0.00,,,0.01,0.000000,,2013-06-23 12:11:00,
2013-06-23 04:33:00,50.0,49.0,29.74,North,0,0.0,1.0,95,0.01,,,0.02,0.000000,,2013-06-23 12:33:00,
2013-06-23 04:53:00,50.0,49.0,29.73,North,0,0.0,1.0,95,0.01,,,0.02,7.000000,,2013-06-23 12:53:00,
2013-06-23 05:01:00,50.0,48.0,29.73,North,0,0.0,1.0,94,0.01,,,0.02,5.000000,,2013-06-23 13:01:00,
2013-06-23 05:33:00,50.0,48.0,29.74,North,0,0.0,1.0,94,0.01,,,0.03,5.000000,,2013-06-23 13:33:00,
2013-06-23 05:43:00,50.0,48.0,29.74,North,0,0.0,1.0,94,0.01,,,0.03,5.000000,,2013-06-23 13:43:00,
2013-06-23 05:53:00,50.0,48.0,29.74,North,0,0.0,1.0,94,0.01,,,0.03,5.000000,,2013-06-23 13:53:00,
2013-06-23 06:04:00,51.0,49.0,29.73,North,0,0.0,1.0,94,0.01,,,0.03,11.000000,,2013-06-23 14:04:00,
2013-06-23 06:11:00,51.0,49.0,29.73,North,0,0.0,2.0,94,0.02,,,0.04,16.000000,,2013-06-23 14:11:00,
2013-06-23 06:22:00,51.0,49.0,29.73,North,0,0.0,1.0,93,0.02,,,0.04,16.000000,,2013-06-23 14:22:00,
2013-06-23 06:34:00,51.0,49.0,29.73,North,0,0.0,0.0,94,0.01,,,0.04,28.000000,,2013-06-23 14:34:00,
2013-06-23 06:52:00,51.0,49.0,29.73,North,0,0.0,1.0,94,0.02,,,0.05,21.000000,,2013-06-23 14:52:00,
2013-06-23 07:05:00,51.0,49.0,29.73,East,84,0.0,2.0,93,0.01,,,0.05,28.000000,,2013-06-23 15:05:00,
2013-06-23 07:11:00,51.0,49.0,29.73,East,84,0.0,2.0,93,0.01,,,0.05,28.000000,,2013-06-23 15:11:00,
2013-06-23 07:34:00,51.0,49.0,29.72,East,85,0.0,1.0,94,0.03,,,0.07,32.000000,,2013-06-23 15:34:00,
2013-06-23 07:43:00,51.0,49.0,29.72,East,85,0.0,1.0,94,0.02,,,0.07,37.000000,,2013-06-23 15:43:00,
2013-06-23 07:52:00,51.0,49.0,29.72,East,85,0.0,1.0,94,0.02,,,0.07,37.000000,,2013-06-23 15:52:00,
2013-06-23 08:05:00,51.0,49.0,29.72,East,85,0.0,1.0,94,0.03,,,0.08,32.000000,,2013-06-23 16:05:00,
2013-06-23 08:11:00,51.0,49.0,29.72,East,85,0.0,1.0,94,0.03,,,0.09,32.000000,,2013-06-23 16:11:00,
2013-06-23 08:35:00,51.0,49.0,29.72,East,85,0.0,1.0,94,0.05,,,0.12,53.000000,,2013-06-23 16:35:00,
2013-06-23 08:42:00,52.0,51.0,29.72,East,85,0.0,2.0,95,0.05,,,0.12,72.000000,,2013-06-23 16:42:00,
2013-06-23 08:52:00,52.0,50.0,29.72,East,85,0.0,2.0,94,0.06,,,0.13,72.000000,,2013-06-23 16:52:00,
2013-06-23 09:03:00,52.0,50.0,29.72,East,84,0.0,3.0,94,0.05,,,0.13,91.000000,,2013-06-23 17:03:00,
2013-06-23 09:11:00,52.0,50.0,29.72,East,84,0.0,3.0,94,0.05,,,0.13,91.000000,,2013-06-23 17:11:00,
2013-06-23 09:22:00,52.0,51.0,29.72,East,84,0.0,2.0,95,0.03,,,0.15,128.000000,,2013-06-23 17:22:00,
2013-06-23 09:33:00,53.0,51.0,29.72,NE,49,1.0,3.0,94,0.03,,,0.15,153.000000,,2013-06-23 17:33:00,
2013-06-23 09:43:00,53.0,51.0,29.72,NE,49,1.0,6.0,93,0.03,,,0.15,234.000000,,2013-06-23 17:43:00,
2013-06-23 09:52:00,54.0,52.0,29.72,ENE,57,1.0,6.0,92,0.02,,,0.15,281.000000,,2013-06-23 17:52:00,
2013-06-23 10:01:00,55.0,52.0,29.72,NNE,26,1.0,5.0,90,0.02,,,0.15,244.000000,,2013-06-23 18:01:00,
2013-06-23 10:11:00,56.0,52.0,29.72,NNE,32,1.0,3.0,88,0.02,,,0.15,251.000000,,2013-06-23 18:11:00,
2013-06-23 10:22:00,56.0,52.0,29.72,NNE,32,1.0,3.0,88,0.02,,,0.15,251.000000,,2013-06-23 18:22:00,
2013-06-23 10:34:00,57.0,52.0,29.72,North,350,2.0,7.0,84,0.02,,,0.17,309.000000,,2013-06-23 18:34:00,
2013-06-23 10:42:00,58.0,52.0,29.72,North,5,2.0,7.0,81,0.02,,,0.17,352.000000,,2013-06-23 18:42:00,
2013-06-23 10:53:00,58.0,53.0,29.72,NNE,18,1.0,5.0,82,0.02,,,0.17,308.000000,,2013-06-23 18:53:00,
2013-06-23 11:01:00,58.0,52.0,29.71,NNE,17,2.0,3.0,81,0.02,,,0.17,292.000000,,2013-06-23 19:01:00,
2013-06-23 11:11:00,58.0,52.0,29.71,NNE,17,2.0,3.0,81,0.02,,,0.17,292.000000,,2013-06-23 19:11:00,
2013-06-23 11:21:00,59.0,52.0,29.71,NNE,20,2.0,7.0,79,0.02,,,0.17,406.000000,,2013-06-23 19:21:00,
2013-06-23 11:32:00,59.0,53.0,29.70,NNE,22,1.0,6.0,80,0.00,,,0.17,471.000000,,2013-06-23 19:32:00,
2013-06-23 11:53:00,62.0,51.0,29.70,NE,38,4.0,8.0,66,0.00,,,0.17,330.000000,,2013-06-23 19:53:00,
2013-06-23 12:01:00,62.0,48.0,29.70,East,99,2.0,7.0,60,0.00,,,0.17,399.000000,,2013-06-23 20:01:00,
2013-06-23 12:11:00,63.0,49.0,29.70,East,80,2.0,6.0,60,0.00,,,0.17,969.000000,,2013-06-23 20:11:00,
2013-06-23 12:33:00,65.0,51.0,29.69,NNW,336,2.0,7.0,60,0.00,,,0.17,817.000000,,2013-06-23 20:33:00,
2013-06-23 12:42:00,65.0,51.0,29.69,East,84,2.0,7.0,60,0.00,,,0.17,888.000000,,2013-06-23 20:42:00,
2013-06-23 13:22:00,66.0,50.0,29.69,ENE,64,2.0,10.0,57,0.00,,,0.17,450.000000,,2013-06-23 21:22:00,
2013-06-23 14:01:00,65.0,53.0,29.69,WSW,241,1.0,5.0,65,0.00,,,0.17,489.000000,,2013-06-23 22:01:00,
2013-06-23 14:11:00,65.0,52.0,29.69,WNW,298,1.0,5.0,63,0.00,,,0.17,457.000000,,2013-06-23 22:11:00,
2013-06-23 14:22:00,65.0,51.0,29.69,WNW,303,2.0,6.0,61,0.00,,,0.17,279.000000,,2013-06-23 22:22:00,
2013-06-23 14:32:00,64.0,52.0,29.69,NNW,348,1.0,6.0,64,0.00,,,0.17,336.000000,,2013-06-23 22:32:00,
2013-06-23 14:43:00,64.0,52.0,29.68,NW,323,1.0,6.0,65,0.00,,,0.17,466.000000,,2013-06-23 22:43:00,
2013-06-23 14:53:00,65.0,53.0,29.68,NW,323,1.0,3.0,66,0.00,,,0.17,306.000000,,2013-06-23 22:53:00,
2013-06-23 15:01:00,64.0,52.0,29.68,WNW,299,0.0,3.0,65,0.00,,,0.17,329.000000,,2013-06-23 23:01:00,
2013-06-23 15:11:00,64.0,52.0,29.68,WNW,299,0.0,3.0,65,0.00,,,0.17,329.000000,,2013-06-23 23:11:00,
2013-06-23 15:22:00,64.0,51.0,29.68,WNW,290,3.0,5.0,62,0.00,,,0.17,939.000000,,2013-06-23 23:22:00,
2013-06-23 15:33:00,67.0,51.0,29.67,NNW,337,3.0,8.0,56,0.00,,,0.17,517.000000,,2013-06-23 23:33:00,
2013-06-23 15:44:00,66.0,50.0,29.67,WNW,291,5.0,9.0,57,0.00,,,0.17,1109.000000,,2013-06-23 23:44:00,
2013-06-23 15:52:00,66.0,52.0,29.67,North,355,1.0,9.0,60,0.00,,,0.17,425.000000,,2013-06-23 23:52:00,
2013-06-23 16:01:00,66.0,52.0,29.67,North,11,3.0,7.0,60,0.00,,,0.17,835.000000,,2013-06-24 00:01:00,
2013-06-23 16:11:00,66.0,52.0,29.67,North,11,3.0,7.0,60,0.00,,,0.17,835.000000,,2013-06-24 00:11:00,
2013-06-23 16:33:00,65.0,50.0,29.66,NNE,14,1.0,8.0,58,0.00,,,0.17,260.000000,,2013-06-24 00:33:00,
2013-06-23 16:42:00,65.0,51.0,29.66,NNE,33,2.0,9.0,61,0.00,,,0.17,288.000000,,2013-06-24 00:42:00,
2013-06-23 16:52:00,66.0,50.0,29.66,NNE,22,5.0,12.0,57,0.00,,,0.17,341.000000,,2013-06-24 00:52:00,
2013-06-23 17:01:00,66.0,50.0,29.66,NNE,18,4.0,12.0,56,0.00,,,0.17,206.000000,,2013-06-24 01:01:00,
2013-06-23 17:11:00,66.0,49.0,29.66,ENE,64,3.0,12.0,55,0.00,,,0.17,220.000000,,2013-06-24 01:11:00,
2013-06-23 17:32:00,66.0,48.0,29.66,NNE,29,6.0,9.0,53,0.00,,,0.17,469.000000,,2013-06-24 01:32:00,
2013-06-23 17:42:00,68.0,51.0,29.65,NE,56,2.0,10.0,54,0.00,,,0.17,654.000000,,2013-06-24 01:42:00,
2013-06-23 17:52:00,69.0,50.0,29.65,NE,40,3.0,12.0,51,0.00,,,0.17,675.000000,,2013-06-24 01:52:00,
2013-06-23 18:01:00,69.0,51.0,29.65,East,96,3.0,8.0,52,0.00,,,0.17,628.000000,,2013-06-24 02:01:00,
2013-06-23 18:11:00,69.0,51.0,29.65,East,96,3.0,8.0,52,0.00,,,0.17,628.000000,,2013-06-24 02:11:00,
2013-06-23 18:33:00,63.0,51.0,29.66,SSE,153,1.0,3.0,65,0.00,,,0.17,211.000000,,2013-06-24 02:33:00,
2013-06-23 18:42:00,62.0,51.0,29.65,SSW,192,1.0,5.0,66,0.00,,,0.17,471.000000,,2013-06-24 02:42:00,
2013-06-23 18:53:00,63.0,52.0,29.65,West,277,1.0,5.0,67,0.00,,,0.17,346.000000,,2013-06-24 02:53:00,
2013-06-23 19:01:00,62.0,51.0,29.65,SSW,210,2.0,5.0,67,0.00,,,0.17,371.000000,,2013-06-24 03:01:00,
2013-06-23 19:11:00,62.0,51.0,29.65,SSW,210,2.0,5.0,67,0.00,,,0.17,371.000000,,2013-06-24 03:11:00,
2013-06-23 19:22:00,61.0,50.0,29.65,SSW,193,2.0,3.0,68,0.00,,,0.17,445.000000,,2013-06-24 03:22:00,
2013-06-23 19:42:00,63.0,52.0,29.65,SSE,168,0.0,2.0,68,0.00,,,0.17,139.000000,,2013-06-24 03:42:00,
2013-06-23 19:53:00,62.0,51.0,29.65,SW,223,2.0,3.0,67,0.00,,,0.17,195.000000,,2013-06-24 03:53:00,
2013-06-23 20:01:00,61.0,51.0,29.65,SSW,207,1.0,3.0,70,0.00,,,0.17,221.000000,,2013-06-24 04:01:00,
2013-06-23 20:11:00,61.0,52.0,29.65,WSW,238,2.0,3.0,72,0.00,,,0.17,199.000000,,2013-06-24 04:11:00,
2013-06-23 20:22:00,61.0,52.0,29.65,SW,232,0.0,2.0,72,0.00,,,0.17,172.000000,,2013-06-24 04:22:00,
2013-06-23 20:33:00,61.0,52.0,29.65,SW,232,0.0,2.0,72,0.00,,,0.17,172.000000,,2013-06-24 04:33:00,
2013-06-23 20:43:00,60.0,51.0,29.65,SW,232,0.0,2.0,73,0.00,,,0.17,199.000000,,2013-06-24 04:43:00,
2013-06-23 21:02:00,60.0,52.0,29.64,SW,232,0.0,2.0,74,0.00,,,0.17,121.000000,,2013-06-24 05:02:00,
2013-06-23 21:12:00,59.0,51.0,29.64,South,189,0.0,3.0,74,0.00,,,0.17,134.000000,,2013-06-24 05:12:00,
2013-06-23 21:22:00,59.0,50.0,29.64,South,189,1.0,2.0,72,0.00,,,0.17,128.000000,,2013-06-24 05:22:00,
2013-06-23 21:33:00,59.0,50.0,29.64,South,183,1.0,3.0,73,0.00,,,0.17,113.000000,,2013-06-24 05:33:00,
2013-06-23 21:42:00,58.0,50.0,29.65,SW,217,1.0,3.0,75,0.00,,,0.17,84.000000,,2013-06-24 05:42:00,
2013-06-23 21:53:00,57.0,49.0,29.65,South,186,1.0,3.0,75,0.00,,,0.17,77.000000,,2013-06-24 05:53:00,
2013-06-23 22:02:00,57.0,50.0,29.65,South,181,1.0,3.0,78,0.00,,,0.17,63.000000,,2013-06-24 06:02:00,
2013-06-23 22:12:00,56.0,50.0,29.64,SSW,212,1.0,3.0,79,0.00,,,0.17,49.000000,,2013-06-24 06:12:00,
2013-06-23 22:34:00,55.0,50.0,29.64,SSW,195,2.0,3.0,82,0.00,,,0.17,33.000000,,2013-06-24 06:34:00,
2013-06-23 22:43:00,54.0,49.0,29.64,South,188,0.0,3.0,83,0.00,,,0.17,23.000000,,2013-06-24 06:43:00,
2013-06-23 22:52:00,54.0,50.0,29.64,SW,215,0.0,3.0,85,0.00,,,0.17,25.000000,,2013-06-24 06:52:00,
2013-06-23 23:02:00,54.0,50.0,29.64,SW,215,0.0,2.0,85,0.00,,,0.17,18.000000,,2013-06-24 07:02:00,
2013-06-23 23:12:00,53.0,49.0,29.64,SSE,162,0.0,3.0,86,0.00,,,0.17,12.000000,,2013-06-24 07:12:00,
2013-06-23 23:24:00,53.0,49.0,29.64,SSE,162,0.0,3.0,86,0.00,,,0.17,12.000000,,2013-06-24 07:24:00,
2013-06-23 23:34:00,53.0,49.0,29.64,South,190,1.0,2.0,87,0.00,,,0.17,5.000000,,2013-06-24 07:34:00,
2013-06-23 23:44:00,53.0,50.0,29.64,SW,231,1.0,3.0,88,0.00,,,0.17,0.000000,,2013-06-24 07:44:00,
2013-06-23 23:53:00,52.0,49.0,29.64,WSW,245,0.0,2.0,89,0.00,,,0.17,0.000000,,2013-06-24 07:53:00,